Trenton, NJ

2:35 AM EST on February 22, 2017 (GMT -0500)
McGuire Air Force Base

Weather History for KWRI - December, 2013

Change the Weather History Date:

Monday, December 2, 2013

  Actual Average Record
Temperature  
Mean Temperature 40 °F -  
Max Temperature 50 °F 49 °F 60 °F (1996)
Min Temperature 31 °F 30 °F 23 °F (1999)
Degree Days  
Heating Degree Days 24    
Moisture  
Dew Point 29 °F    
Average Humidity 68    
Maximum Humidity 85    
Minimum Humidity 42    
Precipitation  
Precipitation 0.01 in - - ()
Sea Level Pressure  
Sea Level Pressure 29.94 in    
Wind  
Wind Speed 2 mph (WNW)    
Max Wind Speed 5 mph    
Max Gust Speed -    
Visibility 10 miles    
Events      
Averages and records for this station are not official NWS values.
T = Trace of Precipitation, MM = Missing Value Source: NWS Daily Summary

Daily Weather History Graph

Daily Weather History Graph

Search for Another Location

Airport or City:

Trip Planner

Search our weather history database for the weather conditions in past years. The results will help you decide how hot, cold, wet, or windy it might be!

Date:

Astronomy

Dec. 02, 2013 Rise Set
Actual Time 7:02 AM EST 4:33 PM EST
Civil Twilight 6:32 AM EST 5:03 PM EST
Nautical Twilight 5:58 AM EST 5:37 PM EST
Astronomical Twilight 5:25 AM EST 6:09 PM EST
Moon 6:24 AM EST (12/2) 4:34 PM EST (12/2)
Length of Visible Light 10h 31m
Length of Day
9h 31m
Waning Crescent, 0% of the Moon is Illuminated
Dec 2
Waning Crescent
Dec 2
New
Dec 9
First Quarter
Dec 17
Full
Dec 25
Last Quarter

Hourly Weather History & Observations

Time (EST) Temp. Windchill Dew Point Humidity Pressure Visibility Wind Dir Wind Speed Gust Speed Precip Events Conditions
12:58 AM 39.4 °F 37.2 °F 29.8 °F 69% 30.01 in 10.0 mi WSW 3.5 mph - N/A   Overcast
1:58 AM 37.9 °F - 29.8 °F 73% 30.01 in 10.0 mi Calm Calm - N/A   Overcast
2:58 AM 36.9 °F 34.3 °F 30.4 °F 77% 29.99 in 10.0 mi WNW 3.5 mph - N/A   Overcast
3:58 AM 36.1 °F - 31.6 °F 84% 29.99 in 10.0 mi Calm Calm - N/A   Overcast
4:58 AM 36.9 °F - 32.7 °F 85% 29.97 in 10.0 mi South 2.3 mph - N/A   Overcast
5:58 AM 36.9 °F 33.1 °F 32.7 °F 85% 29.96 in 10.0 mi SE 4.6 mph - N/A   Overcast
6:58 AM 37.2 °F - 32.2 °F 82% 29.96 in 10.0 mi SSE 2.3 mph - N/A   Overcast
7:58 AM 38.1 °F 35.7 °F 31.5 °F 77% 29.98 in 10.0 mi NW 3.5 mph - N/A   Overcast
8:58 AM 39.4 °F - 32.0 °F 75% 29.99 in 10.0 mi Calm Calm - N/A   Overcast
9:58 AM 40.5 °F - 30.6 °F 68% 29.98 in 10.0 mi Calm Calm - N/A   Overcast
10:58 AM 43.9 °F - 29.1 °F 56% 29.96 in 10.0 mi Calm Calm - N/A   Overcast
11:58 AM 47.3 °F - 27.9 °F 47% 29.94 in 10.0 mi NW 1.2 mph - N/A   Overcast
12:58 PM 49.1 °F - 28.8 °F 45% 29.91 in 10.0 mi NW 3.5 mph - N/A   Overcast
1:58 PM 50.2 °F - 27.9 °F 42% 29.89 in 10.0 mi Calm Calm - N/A   Mostly Cloudy
2:56 PM 50.0 °F - 28.4 °F 43% 29.90 in 10.0 mi SSW 3.5 mph - N/A   Overcast
3:58 PM 48.6 °F - 27.1 °F 43% 29.91 in 10.0 mi West 3.5 mph - N/A   Mostly Cloudy
4:58 PM 44.1 °F 42.5 °F 28.4 °F 54% 29.89 in 10.0 mi NW 3.5 mph - N/A   Mostly Cloudy
5:58 PM 40.5 °F - 28.6 °F 63% 29.88 in 10.0 mi NW 1.2 mph - N/A   Scattered Clouds
6:58 PM 38.3 °F - 28.2 °F 67% 29.90 in 10.0 mi ENE 2.3 mph - N/A   Partly Cloudy
7:58 PM 33.6 °F - 27.9 °F 79% 29.91 in 10.0 mi ENE 2.3 mph - N/A   Clear
8:58 PM 34.3 °F - 27.9 °F 77% 29.90 in 10.0 mi North 1.2 mph - N/A   Clear
9:58 PM 31.6 °F - 27.3 °F 84% 29.90 in 10.0 mi Calm Calm - N/A   Clear
10:58 PM 32.0 °F - 27.3 °F 83% 29.90 in 10.0 mi Calm Calm - N/A   Mostly Cloudy
11:58 PM 33.3 °F - 28.4 °F 82% 29.88 in 10.0 mi North 2.3 mph - N/A   Mostly Cloudy